SCP
0 0 0 0 0 0 0 0 0 0 0 0 0 0 0 0 0 0 0 0 0 0 0 0 0 0 0 0 0 0 0 0 0 0 0 0 0 0 0 0 0 0 0
0 0 0 0 0 0 0 0 0 0 0 0 0 0 0 0 0 0 0 0 0 0 0 0 0 0 0 0 0 0 0 0 0 0 0 0 0 0 0 0 0 0 0
0 0 0 0 0 0 0 0 0 1 1 0 0 0 0 0 0 0 0 0 0 0 0 0 0 0 0 0 0 0 0 0 0 0 0 0 0 0 0 0 0 0 0
0 0 0 0 0 0 0 0 1 1 1 1 0 0 0 0 0 0 0 0 0 0 0 0 0 0 0 0 0 0 0 0 0 0 0 0 0 0 0 0 0 0 0
0 0 0 0 0 0 0 0 1 1 1 1 1 0 0 0 0 0 0 0 0 0 0 0 0 0 0 0 0 0 0 0 0 0 0 0 0 0 0 0 0 0 0
0 0 0 0 0 0 0 1 1 1 1 1 1 0 0 0 0 0 0 0 0 0 0 0 0 0 0 0 0 0 0 0 0 0 0 0 0 0 0 0 0 0 0
0 0 0 0 0 0 0 1 1 1 1 1 1 1 0 0 0 0 0 0 0 0 0 0 0 0 0 0 0 0 0 0 0 0 0 0 0 0 0 0 0 0 0
0 0 0 0 0 0 0 1 1 1 1 1 1 1 0 0 0 0 0 0 0 0 0 0 0 0 0 0 0 0 0 0 0 0 0 0 0 0 0 0 0 0 0
0 0 0 0 0 0 0 0 1 1 1 1 1 0 0 0 0 0 0 0 0 0 0 0 0 0 0 0 0 0 0 0 0 0 0 0 0 0 0 0 0 0 0
0 0 0 0 0 0 0 0 0 0 0 0 0 0 0 0 0 0 0 0 0 0 0 0 0 0 0 0 0 0 0 0 0 0 0 0 0 0 0 0 0 0 0
0 0 0 0 0 0 0 0 0 0 0 0 0 0 0 0 0 0 0 0 0 0 0 0 0 0 0 0 0 0 0 0 0 0 0 0 1 0 0 0 0 0 0
0 0 0 0 0 0 0 0 0 0 0 0 0 0 0 0 0 0 0 0 0 0 0 0 0 0 0 0 0 0 0 0 0 0 0 1 0 0 0 0 0 0 0
0 0 0 0 0 0 0 0 0 0 0 0 0 0 0 0 0 0 0 0 0 0 0 0 0 0 0 0 0 0 0 0 0 0 0 0 0 0 0 0 0 0 0
1 1 0 0 0 0 0 0 0 0 0 0 0 0 0 0 0 0 0 0 0 0 0 0 0 0 0 0 0 0 0 0 0 0 0 0 0 0 0 0 0 0 0
1 1 1 1 1 1 1 1 0 0 0 0 0 0 0 0 0 0 0 0 0 0 0 0 0 0 0 0 0 0 0 0 0 0 0 0 0 0 0 0 0 0 0
0 1 1 1 1 1 1 1 0 0 0 0 0 0 0 0 0 0 0 0 0 0 0 0 0 0 0 0 0 0 0 0 0 0 0 0 0 0 0 0 0 0 0
0 0 1 1 1 1 1 1 0 0 0 0 0 0 0 0 0 0 0 0 0 0 0 0 0 0 0 0 0 0 0 0 0 0 0 0 0 0 0 0 0 0 0
0 0 0 0 1 1 1 1 0 0 0 0 0 0 0 0 0 0 0 0 0 0 0 0 0 0 0 0 0 0 0 0 0 0 0 0 0 0 0 0 0 0 0
0 0 0 0 0 1 1 1 0 0 0 0 0 0 0 0 0 0 0 0 0 0 0 0 0 0 0 0 0 0 0 0 0 0 0 0 0 0 0 0 0 0 0
0 0 0 0 0 0 1 1 0 0 0 0 0 0 0 0 0 0 0 0 0 0 0 0 0 0 0 0 0 0 0 0 0 0 0 0 0 0 0 0 0 0 0
1 0 0 0 0 0 0 0 0 0 0 0 0 0 0 0 0 0 0 0 0 0 0 0 0 0 0 0 0 0 0 0 0 0 0 0 0 0 0 0 0 0 0
1 0 0 0 0 0 0 0 0 0 0 0 0 0 0 0 0 0 0 0 0 0 0 0 0 0 0 0 0 0 0 0 0 0 0 0 0 0 0 0 0 0 0
1 0 0 0 0 0 0 0 0 0 0 0 0 0 0 0 0 0 0 0 0 0 0 0 0 0 0 0 0 0 0 0 0 0 0 0 0 0 0 0 0 0 0
0 0 0 0 0 0 0 0 0 0 0 0 0 0 0 0 0 0 0 0 0 0 0 0 0 0 0 0 0 0 0 0 0 0 0 0 0 0 0 0 0 0 0
0 0 0 0 0 0 0 0 0 0 0 0 0 0 0 0 0 0 0 0 0 0 0 0 0 0 0 0 0 0 0 0 0 0 0 0 0 0 0 0 0 0 0
0 0 0 0 0 0 0 0 0 0 0 0 0 0 0 0 0 0 0 0 0 0 0 0 0 0 0 0 0 0 0 0 0 0 0 0 0 0 0 0 0 0 0
Wind_Speed
11 13 14 10 9 9 11 12 13 14 14 13 13 13 12 11 11 10 9 8 7 7 7 6 6 6 6 6 6 6 6 6 6 6 6 6 6 6 6 6 7 8 12
13 14 14 11 10 10 11 12 13 13 13 13 13 12 12 11 10 9 8 8 7 7 7 6 6 6 5 5 5 5 5 5 5 5 6 8 7 6 5 3 3 8 10
14 15 14 11 10 10 11 12 13 13 13 13 12 12 11 10 9 8 8 7 6 6 6 6 5 5 5 4 4 4 4 4 4 4 7 7 9 7 5 4 3 7 8
14 13 13 13 11 11 11 12 12 13 13 12 12 11 10 10 8 8 7 6 6 6 5 5 5 4 4 3 3 3 3 3 3 6 8 3 6 10 6 5 5 6 7
13 12 13 13 12 11 11 11 12 13 12 12 11 10 9 9 8 7 6 6 5 5 5 4 4 4 3 3 3 3 3 4 5 10 4 2 3 9 6 6 6 6 7
13 12 14 12 12 11 11 11 11 12 11 11 10 9 8 8 7 6 6 5 5 4 4 3 3 3 2 2 2 3 3 5 9 8 3 3 3 9 7 7 7 7 7
12 11 14 11 11 11 11 11 11 11 10 9 9 8 7 6 6 5 5 4 3 3 3 3 2 2 2 2 2 3 4 6 11 5 4 4 3 9 7 8 7 7 8
11 11 13 12 11 10 10 10 10 9 9 8 8 7 6 5 5 4 3 3 2 2 2 2 2 2 2 3 3 4 5 9 10 6 5 4 5 6 7 8 8 8 8
10 10 11 12 11 11 10 9 9 8 8 7 7 6 6 5 4 3 3 2 1 1 1 1 1 2 3 3 4 4 5 7 11 6 6 3 8 7 8 8 8 8 9
9 8 9 9 9 10 10 10 9 8 7 6 6 5 5 5 5 3 3 2 1 0 1 1 2 3 3 4 4 5 6 9 11 7 4 2 7 6 8 8 9 9 10
7 6 7 8 7 7 8 9 8 8 6 5 5 5 4 4 4 4 2 3 1 0 1 1 2 3 5 7 6 6 8 8 7 5 3 5 3 5 8 9 9 10 10
8 6 5 6 6 6 5 6 4 4 5 3 2 3 2 1 0 0 6 2 1 1 3 1 3 6 8 5 6 7 6 7 6 4 1 4 1 4 6 7 8 9 10
8 6 5 5 5 5 4 4 2 2 2 2 2 1 0 1 1 1 1 2 3 4 3 2 5 4 4 3 4 4 4 5 4 4 1 5 2 4 5 7 8 9 10
7 6 5 5 5 4 3 3 2 2 2 1 2 0 0 0 1 1 1 2 2 2 2 3 2 3 4 4 5 5 5 4 4 3 1 3 2 5 5 6 7 8 9
7 6 5 5 5 4 3 2 2 2 2 2 1 1 1 1 1 1 1 2 3 2 2 3 3 3 4 4 4 5 5 5 5 4 2 2 3 5 5 4 5 7 9
6 6 5 5 5 4 3 2 2 2 2 1 1 1 0 1 1 1 1 1 2 2 3 4 3 3 3 3 4 4 5 5 4 5 5 2 3 3 3 2 3 4 7
6 6 5 5 5 4 4 3 2 2 1 1 2 1 1 1 1 1 1 1 2 2 2 3 4 3 3 3 3 3 3 3 4 4 4 4 2 2 1 1 1 1 2
5 5 5 4 5 5 3 2 2 2 2 1 1 1 1 1 1 2 2 2 2 2 2 2 3 3 3 3 3 3 3 2 3 3 3 3 2 1 3 3 2 2 1
5 5 5 5 5 4 4 3 3 2 2 1 1 1 1 1 2 2 2 2 3 2 2 3 2 3 3 3 3 2 2 2 2 2 2 2 2 2 1 3 3 3 2
5 5 4 5 4 4 3 3 2 2 2 1 1 2 1 1 1 2 1 2 3 2 2 3 3 3 3 3 4 2 2 1 1 1 2 1 1 2 1 2 1 2 4
5 5 4 4 4 3 2 2 2 2 2 1 2 2 1 2 2 2 3 2 3 2 3 4 4 3 2 2 3 2 1 1 0 0 1 1 1 1 2 2 1 1 1
5 5 4 4 3 2 2 1 1 1 1 1 1 2 2 2 2 2 3 2 2 2 2 3 3 4 2 2 3 3 2 2 1 1 0 0 1 1 1 1 2 1 2
6 5 4 4 4 3 3 2 2 2 2 1 1 1 2 2 2 3 3 3 3 3 2 3 3 3 3 3 2 3 3 2 1 0 1 1 1 1 1 2 2 2 2
5 4 4 4 3 3 2 2 2 1 1 1 1 2 2 2 2 2 3 3 3 3 3 4 3 4 4 3 2 2 3 3 2 1 1 1 1 1 1 1 2 2 2
5 4 4 4 4 3 2 2 2 1 1 1 1 2 1 2 2 3 3 3 3 3 3 4 3 4 3 4 3 3 3 2 4 3 2 2 1 1 1 1 1 1 2
5 5 5 5 4 3 3 2 2 2 1 1 1 1 0 0 1 3 3 3 3 3 3 3 3 3 3 4 4 3 3 3 3 2 2 2 2 2 2 1 1 1 1
Wind_Direction
142 132 131 137 131 126 124 125 127 129 131 133 133 133 134 135 134 133 131 128 124 121 118 113 108 107 106 106 107 108 113 116 119 122 125 125 127 129 133 148 185 141 116
138 133 135 139 135 131 128 126 127 129 130 132 133 135 135 134 133 131 130 128 126 123 119 115 112 112 112 113 114 117 122 128 138 143 151 152 142 138 142 158 331 99 131
135 134 143 140 136 132 129 127 127 128 130 131 133 135 135 134 133 132 131 130 128 127 125 123 120 116 116 120 125 130 135 141 149 172 210 192 145 149 156 155 112 119 139
133 139 141 138 140 136 132 130 130 131 132 133 134 135 135 135 135 135 134 133 131 130 130 130 128 125 127 131 139 146 155 161 179 217 223 179 147 139 165 167 159 156 155
133 137 132 144 143 140 136 133 131 131 133 134 135 135 136 136 136 137 137 137 136 135 138 138 136 138 148 155 165 176 189 198 213 240 230 196 141 132 168 179 179 177 171
139 140 132 147 144 142 139 134 133 132 133 134 135 137 139 141 142 143 145 145 145 145 145 145 145 148 167 186 200 213 224 229 236 230 206 221 165 144 181 194 195 189 184
139 136 134 140 142 143 140 135 133 131 131 132 134 137 140 141 143 147 149 148 152 153 154 154 155 169 190 215 231 243 248 245 259 250 219 223 155 143 191 206 204 197 196
136 136 133 139 140 139 138 133 129 127 127 128 130 131 132 132 135 139 142 149 160 165 173 180 192 204 217 230 243 253 256 264 251 249 234 228 124 161 203 213 211 207 209
137 137 141 147 145 141 132 128 126 124 124 124 124 124 125 126 127 130 132 144 157 167 172 198 229 237 241 248 256 263 261 262 271 252 240 228 137 183 212 214 213 214 217
134 137 141 144 144 150 145 134 130 127 124 125 124 129 141 150 149 143 163 122 118 162 223 255 267 261 255 249 251 260 260 253 254 251 244 153 139 200 219 217 215 216 219
129 132 135 139 145 150 144 137 147 141 134 150 147 141 184 191 172 170 99 92 82 344 296 294 281 268 256 226 226 245 251 249 248 263 267 86 144 219 227 224 220 218 221
140 139 137 140 147 152 141 140 158 158 141 170 135 159 191 158 213 307 113 121 159 247 232 227 266 248 249 240 208 222 249 259 269 248 188 103 209 237 234 230 225 223 225
145 141 140 141 144 148 142 146 145 141 137 157 131 161 197 247 217 279 204 180 211 235 248 219 243 267 281 293 285 261 271 282 281 275 146 122 230 249 243 236 231 228 229
148 144 143 146 145 141 129 131 140 144 147 145 130 202 195 235 290 325 304 313 287 283 295 288 278 293 291 285 282 282 272 267 283 305 342 130 255 269 259 245 238 233 233
151 152 151 153 142 135 133 148 141 143 143 128 112 101 335 306 324 326 323 320 308 308 291 292 299 302 288 283 289 292 295 291 291 295 295 187 245 268 272 259 246 240 236
153 154 149 150 143 142 146 143 137 142 129 117 103 88 358 327 336 294 288 303 309 311 318 298 298 291 292 303 292 292 291 298 300 297 292 271 228 252 267 269 258 247 240
156 155 151 150 140 141 145 147 140 124 122 113 110 101 57 341 337 298 304 300 325 319 303 296 299 286 277 281 286 294 286 294 300 296 294 293 261 169 107 37 342 290 257
152 147 143 142 139 141 135 132 116 100 107 107 108 107 83 14 338 306 318 331 318 299 301 299 289 289 292 293 299 303 304 304 304 300 301 302 308 305 116 77 41 28 28
146 144 141 138 139 138 136 128 119 114 103 102 90 67 65 22 344 320 336 349 304 303 309 301 316 304 302 306 296 285 302 312 312 309 330 331 341 316 356 107 91 60 52
142 141 139 142 138 147 143 131 121 115 118 101 82 62 36 25 2 330 331 348 318 320 312 313 306 293 296 304 301 315 297 302 299 334 319 341 338 330 354 24 70 101 89
143 145 148 144 148 165 155 156 152 148 140 114 88 62 37 14 11 352 345 347 319 329 327 320 310 296 293 311 297 289 256 231 171 249 305 324 343 1 5 13 5 352 98
147 147 148 152 155 172 151 158 147 133 135 93 72 69 39 28 5 6 357 331 338 321 322 323 323 313 309 299 302 298 266 213 179 348 317 310 328 340 15 22 34 13 336
156 156 154 151 154 157 159 162 156 160 173 160 138 89 48 32 24 2 349 342 337 317 328 319 315 314 306 291 294 300 296 303 326 215 359 357 354 3 4 18 23 16 355
156 153 150 146 143 141 161 164 170 187 166 82 33 55 49 40 19 7 350 344 333 329 325 309 342 308 297 298 292 285 296 309 282 290 278 1 357 356 13 5 11 17 8
154 154 147 142 140 140 146 158 182 175 132 111 92 86 28 59 25 17 3 351 337 327 333 324 323 313 305 304 304 299 291 269 263 267 279 299 307 348 6 2 354 3 16
160 157 151 149 142 148 161 165 166 151 153 141 129 114 269 72 43 30 6 356 336 335 328 315 303 300 307 306 298 291 288 284 278 280 273 267 293 317 325 322 299 350 6